Location: Unspecified
(58.9933°N, 5.6375°E)
Time: 02:33:02
(UTC+02:00)

Cosmos 2058 - Pass Details

Date: 22 January 2018
Orbit: 564 x 584 km, 82.5° (Epoch: 21 May)

Event Time Altitude Azimuth Distance (km) Brightness Sun altitude
Exits shadow 07:18:40 18° 310° (NW) 1,464 4.4 -13.1°
Maximum altitude 07:20:34 25° 273° (W) 1,210 4.0 -12.8°
Drops below altitude 10° 07:23:59 10° 218° (SW) 1,903 5.4 -12.4°
Sets 07:26:27 0° 205° (SSW) 2,795 6.4 -12.1°
